Theta_e
309 309 308 307 307 308 308 308 308 308 308 307 308 308 307 307 307 307 307 307 307 307 308 308 308 308 309 309 309 309 309 311 313 313 314 315 314 312 312 312 314 314 314 315 314 313 313 312 313 313 316 317 315 315 313 319 322 322 329 325 322 326 324 325 326 321 319 321 323 320 314 314 316 315 311 309 311 314 314 313 313 311 310 311 311 310 309 310
309 309 308 307 308 308 308 308 308 308 309 308 308 308 308 308 308 308 308 308 308 308 308 308 308 308 308 309 308 309 310 312 313 313 315 315 315 314 313 313 313 314 314 315 315 313 314 315 312 314 319 318 315 316 316 317 319 327 329 322 325 329 324 322 324 322 317 316 320 320 315 312 315 314 311 312 316 316 315 315 314 313 312 311 309 308 308 309
309 309 308 308 307 307 308 308 308 308 309 309 309 309 308 308 308 308 308 309 309 309 309 309 309 308 309 308 308 310 311 312 312 313 316 316 315 315 315 314 314 314 314 315 316 312 314 315 311 316 320 317 317 318 320 318 318 327 325 324 332 330 323 320 321 321 317 315 317 318 315 313 314 312 311 313 316 316 316 315 315 316 316 314 312 308 306 308
309 309 308 307 307 308 308 308 308 308 309 309 309 309 309 309 309 308 309 309 309 309 309 309 309 309 309 308 309 310 311 312 313 314 316 315 315 315 315 315 314 314 315 315 315 313 313 313 312 318 319 317 320 319 321 321 320 323 321 327 334 325 321 321 321 320 317 313 313 317 317 315 313 310 311 313 315 316 316 315 316 317 316 317 317 309 304 306
308 308 307 307 307 307 308 308 308 309 309 309 309 309 309 308 308 308 308 308 309 309 309 309 309 309 309 308 310 311 312 315 315 315 315 315 315 314 315 316 314 315 316 315 314 313 313 312 313 319 320 318 320 318 323 323 319 320 321 325 330 321 318 321 323 321 315 313 315 318 317 315 312 311 313 313 315 316 316 316 316 317 315 316 315 310 306 308
308 308 307 307 307 309 311 309 308 309 309 309 309 309 309 308 309 308 308 308 308 308 308 308 308 308 308 309 311 312 313 315 314 314 315 315 314 314 315 315 315 315 316 315 313 313 314 313 313 319 320 318 319 318 321 320 316 319 321 322 325 321 318 321 323 320 316 315 317 318 316 314 312 314 314 313 314 315 315 316 316 315 312 309 309 311 316 319
310 309 309 309 309 313 313 310 309 309 309 309 310 309 309 309 309 309 309 309 308 308 308 307 307 307 308 310 313 314 315 315 313 314 314 314 314 314 315 316 316 316 316 314 312 315 318 316 315 319 320 318 318 319 319 317 315 317 321 321 321 319 319 320 318 319 319 316 317 316 315 314 315 316 314 312 313 314 313 313 313 311 307 306 308 312 316 317
311 311 311 311 312 314 313 311 310 310 310 310 310 309 309 309 309 309 309 309 309 309 308 308 307 306 308 311 313 314 315 316 313 313 313 313 314 314 315 317 316 316 316 314 314 316 317 317 316 316 319 319 317 318 316 314 316 319 320 321 321 320 321 319 316 318 319 317 315 314 316 316 315 315 314 313 313 312 312 312 311 310 308 308 310 311 311 311
313 313 313 313 313 313 311 310 310 310 309 309 309 309 309 309 309 309 310 310 310 310 309 309 308 307 309 309 310 313 314 314 313 314 314 313 314 315 316 317 316 316 315 314 314 313 315 318 318 316 319 319 315 316 316 314 318 321 320 321 322 320 318 317 315 316 318 318 315 314 316 315 312 313 313 313 312 312 312 312 311 310 312 311 310 309 308 309
314 314 314 314 314 313 311 311 311 310 309 309 310 310 310 309 308 309 309 310 310 311 310 310 309 309 309 309 310 312 313 314 314 315 315 315 315 315 316 316 317 317 315 313 312 312 314 317 315 314 316 316 313 313 315 314 316 319 320 319 319 315 314 314 314 314 315 315 314 313 314 313 312 312 312 313 314 314 314 314 312 311 313 312 310 308 307 307
314 314 314 315 314 313 312 313 314 312 309 310 311 312 311 310 309 309 309 309 310 310 310 310 309 308 309 309 311 312 311 313 315 315 316 316 315 315 316 316 316 316 315 311 310 312 313 312 310 310 313 313 312 313 313 313 312 314 315 315 316 313 312 312 313 313 312 311 311 311 312 312 311 311 312 312 314 314 313 313 312 311 312 311 309 308 307 306
314 313 314 315 314 313 315 316 316 315 312 311 313 314 313 312 310 309 309 309 309 308 308 309 309 308 308 309 311 311 309 311 313 314 315 315 314 314 314 315 315 315 314 311 310 312 311 311 310 312 313 311 312 312 311 311 310 312 312 313 315 314 312 312 314 313 310 311 312 310 310 313 312 313 314 311 311 312 312 313 312 311 310 309 309 308 308 306
314 313 314 314 313 314 316 316 317 317 316 314 315 315 314 313 311 310 309 308 308 307 308 309 309 308 308 309 311 309 309 310 310 311 313 313 313 313 313 313 313 312 313 311 310 311 310 311 311 313 312 311 314 311 310 312 311 312 311 312 313 313 313 311 312 312 309 311 313 310 311 314 313 312 313 311 310 311 311 312 311 310 309 308 308 308 309 308
313 313 313 313 314 315 316 317 317 317 316 317 317 316 315 313 312 310 309 309 308 307 308 308 308 308 308 311 310 309 310 309 309 310 310 312 311 312 312 312 311 311 311 310 310 310 310 309 310 311 309 311 314 309 311 317 317 314 310 313 314 312 316 314 311 310 309 312 311 310 311 312 311 311 311 310 309 309 310 310 309 310 309 308 309 309 309 309
314 314 313 313 314 314 316 316 317 317 316 317 317 317 315 313 312 311 311 311 309 309 309 308 309 307 309 312 310 310 311 310 311 310 310 311 311 311 311 311 311 310 311 310 311 311 309 309 310 312 311 310 311 311 315 319 324 320 311 316 318 312 317 316 312 312 311 311 309 309 313 312 310 312 311 310 309 309 309 310 309 309 309 309 309 308 308 308
316 315 314 313 313 314 315 316 316 316 316 317 318 317 315 313 312 312 312 311 311 310 309 310 310 307 311 313 311 311 311 310 312 312 311 311 311 311 311 311 310 310 311 310 311 311 309 310 311 312 312 310 311 316 316 316 324 322 312 315 318 314 314 313 313 316 312 309 309 309 312 312 311 313 313 311 309 309 309 309 308 308 308 308 308 308 308 308
319 317 314 313 313 313 314 315 316 316 317 318 318 317 315 313 312 312 312 311 311 311 309 311 310 308 311 312 311 312 310 309 311 312 312 311 311 312 311 310 309 309 310 310 310 310 309 310 310 311 315 314 314 318 317 315 318 319 314 314 317 315 312 312 314 316 311 309 310 309 309 310 310 311 311 309 309 309 309 308 308 308 308 308 308 308 308 308
322 321 318 315 314 314 314 314 315 315 317 317 318 317 314 313 312 311 312 311 310 309 309 310 309 311 316 313 311 312 310 310 311 312 312 311 311 311 311 310 307 307 310 311 310 310 311 312 314 318 318 314 313 317 317 316 315 316 316 315 315 313 312 312 312 313 313 310 309 309 308 308 308 308 308 308 308 308 308 309 308 308 308 308 308 308 308 308
323 323 321 319 317 315 314 314 314 316 316 318 318 314 312 314 313 311 311 311 313 313 314 313 312 316 320 315 311 310 311 311 311 311 311 311 310 310 311 308 309 312 313 314 312 310 314 316 316 318 316 313 313 314 315 315 314 312 313 313 313 312 311 311 310 311 311 309 308 309 308 308 308 308 308 308 308 308 308 308 307 307 308 308 308 308 309 309
322 322 322 322 320 318 317 316 315 316 316 318 317 312 313 317 317 316 312 312 315 315 316 316 314 316 317 313 311 311 312 311 311 312 310 310 310 311 310 308 312 315 314 319 316 310 313 317 317 316 315 314 313 312 311 312 312 310 311 312 312 311 310 310 310 310 309 308 309 309 309 309 308 308 308 308 309 308 308 308 308 308 308 308 309 309 309 309
322 322 322 322 322 321 321 320 318 317 317 317 316 312 312 311 313 316 314 314 312 308 312 313 310 313 314 311 310 310 312 311 312 312 311 310 310 312 313 311 314 315 315 320 316 309 312 316 317 315 313 313 312 311 310 310 311 311 312 312 311 310 310 309 309 309 308 307 309 310 309 308 308 308 308 309 309 308 308 308 309 309 309 309 309 309 310 309
322 322 322 321 322 322 322 322 320 318 317 318 314 309 307 305 307 309 308 314 313 305 307 309 306 309 309 308 309 310 312 313 313 312 311 310 311 312 314 315 317 319 317 315 314 313 313 316 315 312 311 312 312 311 311 311 312 311 311 311 312 311 310 310 310 310 309 308 310 311 308 308 308 309 308 309 308 309 309 309 309 309 309 309 309 310 310 310
323 322 322 322 322 322 322 322 321 319 317 317 314 308 306 305 306 305 306 313 316 311 310 311 309 309 308 308 308 309 311 312 312 313 311 310 312 313 314 316 317 318 317 314 315 317 318 319 315 310 309 311 312 312 312 312 311 311 311 312 313 311 311 311 312 313 311 309 309 309 308 309 308 309 309 309 308 308 309 309 309 309 309 309 309 310 309 309
323 323 322 323 323 323 322 322 321 318 316 316 315 311 308 306 305 306 309 313 316 315 313 310 308 310 310 308 307 310 312 311 311 312 310 311 314 313 314 316 317 316 315 313 314 315 318 319 314 311 311 311 312 313 313 313 311 313 314 313 312 311 311 311 311 311 312 312 310 309 311 313 312 313 313 313 311 309 311 311 309 308 309 311 311 311 309 309
323 324 323 323 324 324 323 322 320 317 317 316 315 313 309 307 306 306 310 317 321 319 312 307 308 310 309 307 308 309 310 311 311 309 307 310 313 312 312 313 315 317 315 314 314 313 315 314 311 315 315 311 312 314 314 314 312 313 317 314 311 311 311 311 311 310 313 316 312 310 314 315 315 316 318 318 316 314 314 311 309 310 311 311 313 312 310 310
322 323 324 324 324 323 323 322 318 317 318 317 316 315 311 308 307 306 310 320 326 324 316 310 310 310 307 307 307 309 313 312 307 305 307 308 310 311 312 311 311 315 316 315 314 314 315 311 310 314 316 314 315 315 314 313 311 313 316 315 312 311 311 312 311 311 316 316 311 312 316 316 315 315 317 317 316 314 313 311 311 312 311 311 312 311 311 311
321 321 323 324 323 323 323 321 318 318 319 318 317 315 312 309 307 306 312 324 328 322 317 313 309 309 309 307 306 309 317 314 307 306 307 308 308 308 311 312 310 310 311 312 315 316 314 311 311 313 314 316 315 314 314 312 313 316 315 315 315 312 312 314 311 312 317 315 312 313 313 315 316 313 314 316 315 314 312 313 315 313 312 312 309 309 311 310
321 320 321 323 323 323 322 321 321 320 319 319 318 316 313 309 306 307 318 331 330 318 315 313 308 308 309 305 306 309 310 308 309 309 304 305 308 307 311 314 313 312 309 310 317 316 311 312 315 314 314 315 315 317 315 311 314 317 312 312 313 312 314 315 313 315 315 313 315 315 310 314 318 314 314 313 313 315 315 318 319 315 316 314 310 310 311 309
321 320 321 321 322 322 321 321 321 321 320 319 318 317 314 308 306 311 323 330 327 317 313 311 308 309 310 308 309 310 307 306 309 309 305 306 307 307 310 312 313 313 309 310 316 313 309 311 314 316 316 315 317 319 316 313 313 312 309 312 316 315 315 314 313 316 318 316 316 316 312 314 318 318 317 312 313 319 319 318 316 314 315 313 310 311 311 310
319 320 321 320 320 321 320 320 321 321 321 319 318 318 314 311 312 321 330 327 324 318 312 310 310 309 311 312 312 310 309 309 308 309 309 309 308 308 307 307 311 315 312 311 315 312 308 307 308 314 314 314 317 314 309 311 311 310 313 317 318 317 316 316 316 316 318 318 317 317 315 313 317 322 320 316 317 318 316 314 314 313 313 312 311 311 311 310
316 317 320 320 321 321 320 320 321 321 321 320 318 316 316 320 322 328 331 323 319 320 313 311 312 312 314 315 315 312 310 311 309 310 311 310 311 311 308 308 312 319 318 314 314 312 308 307 310 315 313 311 313 310 307 308 309 313 319 316 315 319 319 319 320 317 318 322 320 316 313 311 316 319 317 316 317 314 312 312 313 314 314 315 314 312 309 306
314 315 317 318 320 320 320 321 321 321 321 318 318 318 321 325 325 327 329 323 322 322 315 314 314 315 316 314 316 315 312 312 310 311 314 314 314 314 314 316 316 319 322 320 319 316 313 312 311 312 311 308 310 312 311 309 308 312 316 313 314 319 319 320 322 318 318 322 317 311 311 312 313 314 314 314 313 312 312 312 312 314 314 315 314 310 305 301
314 314 315 317 319 320 320 321 321 321 319 317 319 324 324 325 326 326 328 327 324 320 316 318 315 314 315 315 319 317 311 313 311 310 313 312 312 316 318 318 315 315 319 319 319 321 321 316 309 307 310 310 310 313 314 314 312 310 312 314 317 319 318 322 324 318 317 320 314 308 312 315 314 315 315 314 312 313 313 313 314 314 314 313 310 306 302 299
313 314 315 317 319 320 320 320 321 320 318 317 321 325 323 325 327 326 327 327 324 321 319 320 318 314 314 317 322 318 313 315 313 309 312 311 312 319 321 315 311 313 315 314 316 320 320 321 316 313 313 312 309 310 318 321 313 309 313 315 317 322 322 322 324 320 318 322 315 308 313 319 319 317 315 314 313 312 312 312 310 307 307 307 305 301 299 298
312 313 314 316 318 319 320 320 321 320 318 318 322 325 323 324 325 324 327 327 325 324 318 317 320 319 320 322 321 318 315 318 315 310 312 314 316 323 325 319 312 313 316 316 317 317 315 321 323 314 310 310 309 311 317 321 315 310 313 314 314 322 323 318 322 321 318 321 317 311 315 319 317 314 312 313 313 312 312 309 303 302 303 302 300 298 297 297
311 311 314 316 317 318 319 320 320 318 318 320 324 324 322 322 324 325 325 323 322 322 320 320 322 323 326 327 323 318 314 315 316 312 313 315 316 319 321 321 316 311 313 317 320 318 316 320 320 310 308 310 311 310 311 316 317 311 312 314 314 317 319 316 320 320 316 317 318 316 317 317 315 316 316 316 315 313 310 303 300 300 300 298 298 297 296 296
308 310 313 316 315 316 318 319 319 317 317 322 324 324 322 322 324 325 325 320 317 318 321 325 324 324 327 327 325 321 317 316 315 314 318 318 316 317 317 318 316 310 310 315 317 318 318 319 317 312 312 312 308 309 310 311 313 313 315 316 313 315 317 316 319 321 318 317 319 319 319 317 318 321 321 318 315 309 304 299 298 299 298 297 297 296 295 295
307 309 312 314 314 314 317 319 318 315 316 321 324 324 322 321 321 322 323 320 318 319 322 324 324 324 326 327 327 323 318 320 317 315 321 322 318 318 317 316 315 309 309 310 312 317 317 316 318 316 314 312 307 310 312 311 310 312 316 315 313 317 318 316 319 320 318 318 320 321 320 319 318 319 318 315 311 305 301 298 298 297 296 296 295 295 294 294
307 311 313 313 312 314 316 318 316 314 317 321 323 323 321 321 321 321 320 319 319 322 323 324 324 323 324 325 326 324 319 321 320 317 320 322 319 317 315 316 315 310 308 308 312 319 318 316 319 317 314 313 312 313 315 315 312 309 310 313 314 316 316 316 319 319 319 319 320 322 321 319 319 318 314 311 305 302 301 298 297 296 295 295 294 294 293 292
308 312 314 312 312 315 316 316 315 316 320 321 321 321 320 320 320 319 318 318 318 320 321 323 323 321 323 324 323 323 322 323 323 321 321 323 322 320 319 318 317 313 310 309 310 315 316 317 318 317 316 314 314 316 316 317 317 312 311 313 312 313 315 316 316 317 318 318 319 321 318 319 320 316 310 305 301 300 300 298 296 295 294 293 293 292 292 292
310 313 314 312 313 316 316 316 317 317 320 320 319 318 318 318 318 318 318 317 317 318 317 319 322 320 320 321 321 321 322 324 325 322 322 323 322 322 322 319 317 316 313 311 311 313 316 319 318 317 317 315 315 317 316 315 317 316 315 314 312 313 316 316 315 317 316 315 317 317 316 319 319 310 302 300 299 298 298 297 295 294 293 293 292 292 291 291
310 313 313 312 313 315 315 317 318 317 318 319 318 317 317 317 318 318 317 316 316 317 315 317 321 320 319 319 319 320 321 323 324 322 322 322 320 321 321 317 317 318 317 316 318 316 316 319 318 316 315 315 315 316 315 314 314 315 315 315 314 313 314 316 317 317 316 315 315 315 316 318 313 303 299 299 296 296 296 295 294 293 293 292 292 291 291 290
311 312 311 311 313 314 316 318 318 317 318 318 317 317 316 317 318 318 317 316 316 317 317 318 318 318 319 318 318 319 320 320 321 321 322 322 320 319 320 319 318 317 319 320 319 316 313 314 316 316 316 316 317 317 315 312 312 314 314 315 315 313 314 316 314 314 316 315 315 316 317 319 312 301 299 298 296 295 295 293 293 293 292 292 292 291 291 290
309 310 310 312 313 313 316 317 316 317 317 316 316 316 315 316 317 316 315 316 317 317 317 318 317 316 318 317 316 318 319 318 317 318 319 320 318 314 315 319 318 316 316 317 317 316 314 315 316 317 317 317 317 318 316 314 314 315 317 317 316 313 314 315 312 313 314 315 316 317 317 320 315 303 298 297 296 296 294 293 293 292 291 292 291 291 291 290
306 307 307 309 310 311 315 315 314 315 315 315 316 316 315 315 316 316 315 315 316 316 317 317 315 314 316 316 316 316 316 316 315 315 317 318 317 313 311 314 316 314 313 312 311 312 313 315 316 316 317 317 315 314 315 315 314 313 315 316 316 315 316 315 314 314 315 315 316 316 315 317 314 309 305 299 295 296 295 293 292 292 291 291 291 291 291 290
305 305 305 307 308 308 311 312 313 314 314 314 314 314 314 314 314 315 315 315 315 315 316 315 313 313 315 315 314 315 314 314 313 314 315 316 317 314 309 309 312 311 311 310 308 308 311 313 315 315 315 315 315 314 314 314 313 312 313 313 312 313 313 313 313 314 314 314 313 313 314 313 312 314 309 299 294 295 295 293 292 292 292 291 291 291 291 290
305 307 307 308 308 307 308 310 311 313 313 313 313 313 312 312 312 312 313 313 313 313 314 315 313 313 314 314 313 314 314 314 313 313 313 313 315 313 308 308 310 307 308 309 307 309 312 312 313 313 313 313 313 313 312 312 311 311 311 311 310 310 311 312 313 313 312 313 313 313 313 312 313 313 306 297 293 293 294 294 293 293 292 292 291 291 290 290
300 304 304 304 306 308 307 307 308 310 312 311 312 312 312 311 311 311 311 311 311 312 313 313 312 313 314 313 313 313 312 313 312 311 312 312 313 314 310 309 307 304 305 307 305 309 312 310 310 311 311 311 311 310 310 310 309 310 310 311 310 310 311 311 311 311 311 312 312 312 310 310 311 308 300 295 293 292 293 294 294 294 293 292 291 290 290 289
299 301 300 299 302 303 302 302 303 306 309 309 310 310 310 310 309 309 309 309 310 311 312 312 312 312 312 312 312 312 311 311 310 308 310 312 311 311 310 309 305 302 305 306 305 308 309 308 308 309 308 308 309 308 308 308 308 308 308 309 309 309 310 309 309 309 309 308 309 308 308 307 305 299 295 294 293 292 293 293 294 294 294 292 291 290 289 289
298 299 298 297 298 297 297 298 300 303 306 306 308 308 307 308 308 307 307 307 308 309 310 311 309 307 309 310 311 311 309 308 308 306 307 309 308 307 308 309 306 303 303 304 305 307 307 306 307 307 305 306 306 306 307 306 305 305 304 305 305 305 305 305 305 305 305 305 305 304 306 305 299 294 294 294 293 292 292 292 293 294 293 292 291 290 289 289
294 295 295 297 298 297 296 296 298 302 304 304 306 306 306 307 306 306 306 305 305 306 306 305 303 303 305 306 307 306 303 302 302 301 300 301 302 302 304 304 303 302 302 304 305 305 305 305 306 305 305 304 304 304 304 302 301 301 301 301 301 301 302 302 302 302 302 303 302 302 303 301 296 293 293 293 293 292 292 291 291 292 293 292 291 290 289 289
292 293 294 296 298 298 296 296 297 300 302 302 304 304 305 304 302 304 306 303 300 301 300 298 299 301 302 303 303 302 298 297 298 298 297 298 297 298 299 299 298 299 300 302 303 303 303 303 303 304 304 303 303 303 300 299 300 300 301 301 300 299 300 299 299 300 301 302 302 302 300 296 294 293 293 293 293 292 292 291 291 291 292 292 292 291 290 289
Wind_Speed
10 10 10 9 8 8 8 8 9 9 9 8 8 8 8 8 8 8 9 9 9 9 9 9 10 10 10 11 12 12 15 14 10 7 6 5 5 7 9 7 4 9 15 10 8 9 7 4 4 6 5 3 3 1 2 2 2 2 2 2 2 3 3 5 7 6 4 4 5 3 1 1 6 5 2 1 1 4 5 5 6 6 8 12 13 11 9 8
10 10 9 9 8 8 8 8 8 8 8 8 8 8 8 8 8 8 8 8 8 9 9 9 10 10 10 10 10 11 15 13 9 8 7 2 2 4 7 8 5 6 13 12 10 10 6 2 4 6 4 2 2 2 1 1 2 2 3 1 3 5 5 6 7 6 4 4 4 4 2 2 6 3 1 3 5 4 7 9 4 6 13 14 17 18 15 11
10 9 9 9 9 9 8 8 8 8 8 7 8 8 7 8 8 8 9 9 9 9 9 9 10 10 9 9 9 11 14 10 6 5 5 2 3 3 4 7 6 6 12 10 8 8 4 4 8 6 4 1 1 2 1 0 1 2 3 2 6 6 5 5 7 7 8 4 3 6 2 2 5 2 0 2 7 6 9 11 5 8 12 11 12 15 15 14
10 9 9 9 8 8 9 9 9 9 8 8 8 8 8 8 8 8 9 10 10 10 11 11 11 10 10 9 8 10 11 7 3 5 6 1 5 5 2 6 7 8 11 8 6 6 4 7 8 4 3 1 3 2 0 2 2 1 4 4 6 4 3 6 8 9 7 3 3 5 4 6 4 2 2 2 5 10 11 11 11 13 12 10 9 8 11 12
11 10 9 9 8 8 9 9 9 9 9 8 8 9 9 9 9 10 10 10 10 11 12 12 12 12 10 9 7 7 7 5 3 5 4 4 7 6 3 4 9 9 12 9 7 8 7 7 6 5 3 1 2 2 2 3 3 2 4 6 5 4 3 6 7 7 5 3 3 4 6 7 1 1 4 6 5 11 12 8 11 13 10 9 8 5 8 9
11 10 9 9 9 9 10 10 10 9 9 8 8 9 9 10 10 11 11 11 11 11 12 12 13 12 10 8 5 3 3 1 5 5 6 9 8 7 3 5 9 10 12 10 10 10 7 6 4 3 3 1 2 3 4 2 2 2 4 5 6 5 5 5 3 3 5 4 3 4 5 3 3 6 5 10 13 17 17 11 7 10 9 9 6 4 6 9
11 11 10 10 9 10 10 10 10 9 8 8 8 9 9 10 10 12 12 13 12 11 12 12 13 12 9 5 2 1 4 5 12 10 13 13 9 7 4 6 10 12 13 12 12 8 5 6 3 4 4 1 3 5 4 0 1 2 4 4 6 6 7 7 2 2 5 5 7 3 7 7 5 8 3 9 17 19 20 15 8 11 9 7 7 7 9 10
11 11 11 10 10 10 10 10 10 9 9 8 9 9 10 10 11 12 12 13 13 12 12 12 12 11 8 2 1 3 1 10 16 13 14 12 9 7 6 8 11 13 14 14 12 9 6 6 5 4 2 3 4 4 3 1 0 4 7 5 3 4 6 6 3 4 6 7 6 2 9 16 10 5 8 16 20 16 15 16 12 10 9 8 10 13 12 11
11 11 11 11 10 11 10 10 10 10 10 9 10 10 11 11 12 13 13 14 13 12 12 13 12 9 7 1 3 1 5 11 12 9 10 10 9 8 8 10 13 15 14 13 12 12 7 5 6 5 4 4 5 4 3 2 3 7 7 5 4 6 6 5 5 6 7 6 4 3 13 17 6 3 13 22 20 14 11 13 11 7 10 11 11 13 12 11
12 12 11 10 11 11 11 10 11 11 10 10 10 11 12 13 14 14 14 15 14 13 13 13 11 8 6 1 2 3 7 8 8 8 8 9 9 8 10 11 14 16 14 11 13 14 9 8 8 5 4 3 4 4 3 5 4 5 4 5 7 8 7 4 6 7 6 6 7 9 15 15 1 2 12 15 8 6 7 11 9 5 10 13 11 11 9 9
13 12 10 10 11 11 11 11 12 12 11 10 12 13 13 14 15 15 15 15 15 13 13 13 10 7 4 3 3 6 6 5 8 9 10 10 9 8 10 10 12 15 13 10 13 16 10 10 11 7 2 3 3 3 3 5 2 2 1 6 8 8 8 5 7 8 5 5 8 11 12 12 2 2 15 16 3 2 6 11 11 8 11 12 11 11 7 8
12 11 10 10 11 11 12 12 13 14 13 12 14 15 15 16 16 16 16 15 15 14 13 12 8 4 2 2 6 12 10 8 9 10 11 11 8 8 9 8 10 12 12 9 11 16 11 10 13 6 3 4 2 1 4 3 2 1 3 5 9 8 9 7 6 5 5 4 6 9 5 8 4 9 18 17 6 4 6 10 13 11 11 10 10 10 7 9
11 11 11 11 12 11 12 13 15 15 15 15 15 16 16 17 17 17 16 16 15 14 12 10 7 4 1 2 6 11 15 14 12 13 13 11 8 6 6 7 8 10 12 8 6 11 13 11 11 5 3 5 2 2 2 3 2 2 2 0 6 7 8 6 2 1 3 5 6 6 3 7 10 14 18 12 4 4 7 9 11 11 10 8 8 8 9 11
11 11 12 12 12 12 13 15 16 17 17 17 17 17 17 18 18 17 16 15 14 12 10 6 4 3 2 6 8 8 12 13 14 15 14 12 8 5 4 6 9 10 10 8 4 5 12 12 8 3 1 3 2 1 2 5 2 3 1 1 2 3 6 6 1 3 1 3 7 5 4 9 13 15 15 8 2 1 7 11 9 10 11 9 8 8 11 12
11 12 12 12 13 13 14 15 17 19 19 19 19 18 19 18 17 16 14 12 9 7 5 3 6 5 2 7 10 7 9 11 12 13 13 13 10 5 5 7 8 8 7 6 4 4 10 10 5 2 2 1 0 1 3 4 3 2 2 3 2 3 5 9 4 6 6 4 5 5 4 8 13 14 13 6 4 0 6 11 9 10 14 14 11 9 12 14
11 11 12 12 13 14 14 15 17 20 20 20 20 19 20 17 13 13 11 7 3 4 5 5 8 6 1 5 5 6 8 8 8 8 10 13 10 7 8 9 7 7 6 5 6 7 9 7 2 1 1 2 1 2 3 4 4 2 2 5 4 4 4 7 7 6 6 2 2 7 6 6 9 10 11 7 6 7 10 14 13 13 15 15 13 11 11 14
11 11 11 12 13 14 15 16 17 19 21 21 21 21 18 12 9 10 5 3 5 7 6 5 7 4 2 4 4 6 5 4 5 4 6 9 9 10 11 8 6 9 9 7 8 7 4 3 1 1 1 1 2 4 4 3 5 3 2 4 4 5 4 4 7 6 1 5 6 7 7 10 12 11 12 12 12 11 14 19 16 14 15 13 12 13 13 13
11 11 11 11 13 14 15 16 17 19 21 21 21 21 14 6 7 6 5 9 10 9 6 3 5 2 4 5 4 3 1 2 3 3 5 8 10 12 10 7 7 9 8 5 3 2 3 2 2 1 2 1 2 4 1 7 8 6 4 4 4 4 5 5 6 6 5 6 6 3 7 14 15 14 14 16 14 10 14 19 16 14 15 13 12 13 15 14
12 12 13 12 13 14 15 17 17 19 21 21 21 17 8 4 4 3 6 5 5 4 2 2 3 2 3 5 3 1 3 4 4 4 7 10 12 11 8 7 8 7 5 2 1 1 1 3 4 0 4 4 5 7 11 11 7 5 4 4 6 6 5 7 8 7 7 11 10 8 13 14 13 15 13 15 13 11 15 15 14 14 14 13 12 13 15 16
12 12 13 13 13 14 15 17 18 19 20 21 21 13 3 4 4 2 3 1 4 4 2 5 6 3 6 4 1 1 2 3 2 3 9 12 13 11 6 4 5 5 3 4 3 1 3 3 3 6 9 9 9 11 11 5 2 2 3 5 6 7 8 8 10 10 4 5 9 11 16 14 13 15 14 15 15 15 16 11 12 15 15 14 14 15 14 15
12 12 13 13 14 14 15 17 18 19 18 18 17 8 2 1 2 3 5 4 9 11 8 10 10 8 12 7 1 2 1 0 2 4 9 11 11 8 2 2 4 1 1 4 3 1 3 4 8 13 11 6 4 5 5 4 5 6 5 7 5 5 11 10 10 12 3 1 5 8 13 14 14 16 16 16 15 16 17 11 12 16 17 16 13 12 11 11
12 11 12 13 13 14 15 16 17 18 16 15 12 5 2 1 2 3 2 4 10 10 10 12 9 9 15 12 6 2 1 2 2 1 8 8 4 4 2 4 5 3 1 3 3 2 2 5 12 13 4 2 2 2 1 5 6 6 3 4 5 5 8 7 7 8 3 1 6 9 12 11 15 21 19 16 13 14 15 12 15 17 17 15 9 8 10 11
12 12 12 11 11 14 15 16 16 15 12 11 9 4 1 2 4 2 1 2 7 6 6 8 6 6 9 8 6 6 3 5 4 3 9 9 2 3 5 4 4 3 2 4 5 4 3 7 12 8 4 3 3 1 1 4 4 5 3 4 7 7 5 5 5 6 4 3 5 10 12 10 13 15 12 12 10 10 13 16 17 12 10 13 11 9 11 12
10 11 10 8 10 11 12 16 14 10 9 7 6 4 4 3 3 1 0 1 4 6 5 5 4 4 5 3 5 8 5 4 3 3 7 10 4 3 4 5 5 2 4 7 7 5 6 7 4 2 5 7 6 4 5 6 4 4 5 6 10 9 7 8 5 6 6 5 3 7 10 6 4 4 3 5 4 5 11 15 12 4 3 8 10 11 10 9
8 10 9 8 10 10 11 14 8 5 8 4 3 7 5 2 1 2 2 2 3 6 4 2 1 2 3 2 4 7 3 2 3 3 4 7 5 4 2 2 4 4 6 6 6 5 8 6 4 5 3 5 5 6 7 6 3 4 6 12 14 12 10 10 6 6 5 4 3 7 7 4 1 1 4 4 5 9 11 7 6 5 3 5 7 9 8 7
11 11 9 8 10 10 9 7 3 5 8 2 3 8 5 3 0 2 1 3 4 5 2 1 0 1 3 2 1 3 4 1 2 1 1 2 2 3 2 1 1 3 5 6 4 3 5 2 4 6 4 6 5 6 5 7 3 3 5 8 11 9 8 8 6 3 1 3 3 4 1 7 3 3 7 6 7 14 11 6 7 7 6 5 6 6 7 8
15 13 10 9 9 8 6 2 3 7 5 2 5 7 5 3 0 2 1 3 4 2 2 1 1 2 2 1 2 3 3 3 2 3 2 1 2 1 2 3 1 1 3 3 1 3 3 3 6 5 5 6 5 6 5 9 6 4 4 2 3 4 5 5 1 1 3 3 5 1 3 6 7 4 6 7 8 11 11 8 9 7 6 6 6 5 6 7
14 13 11 10 9 9 6 4 4 5 4 4 6 7 6 3 1 0 1 2 3 2 3 1 0 2 0 1 3 4 1 3 3 1 3 2 1 2 0 5 5 4 3 5 3 4 3 4 4 6 5 4 6 5 7 11 6 5 4 4 4 3 4 4 4 2 1 3 5 3 3 3 8 5 2 4 5 7 9 9 9 7 7 7 7 7 7 6
9 10 12 12 11 10 8 6 5 5 6 6 5 6 6 3 1 3 2 2 2 2 1 0 2 1 2 2 4 2 0 2 2 2 3 2 0 3 1 5 6 5 3 3 6 6 1 4 7 8 5 6 7 4 8 11 5 4 5 5 4 4 3 3 3 2 2 3 5 5 5 4 8 4 2 1 2 5 6 6 6 7 8 8 7 8 8 7
8 7 9 10 10 9 6 7 9 8 8 6 5 6 5 2 0 2 3 3 1 1 0 1 1 1 2 3 2 2 0 1 1 2 3 1 2 4 1 3 5 4 1 2 4 5 1 1 3 5 5 5 4 2 4 7 4 4 6 5 6 5 4 3 1 2 2 5 7 8 10 5 6 4 3 3 3 5 3 6 8 9 10 8 6 7 8 8
8 8 8 8 9 8 5 4 7 8 8 6 3 4 3 2 2 3 6 2 1 2 0 0 1 2 3 3 1 1 1 1 1 2 1 0 2 3 1 1 3 3 3 4 4 4 1 1 2 3 3 4 5 3 1 1 4 4 4 4 3 4 4 4 4 3 1 6 6 6 9 7 7 6 2 4 5 4 4 5 8 9 10 8 6 6 8 9
6 7 8 9 10 9 7 3 1 3 6 5 1 2 3 1 1 4 3 3 2 2 1 2 1 2 3 2 1 2 2 1 1 2 3 2 2 2 3 4 3 1 4 2 3 4 2 4 3 3 1 5 5 2 2 3 4 4 3 4 2 3 3 3 3 1 3 7 5 1 4 4 9 8 4 8 13 10 5 3 5 7 6 6 7 8 9 10
6 6 6 9 11 12 11 7 3 3 6 6 1 3 4 3 5 3 2 2 2 1 1 1 1 1 3 2 2 3 2 2 3 3 3 3 2 3 5 5 6 2 3 3 1 3 3 4 1 0 3 4 8 5 3 1 4 5 5 5 3 2 1 3 3 2 4 6 3 0 1 2 8 7 6 11 13 10 4 3 7 5 3 4 6 8 10 12
7 6 5 7 11 12 13 12 10 7 7 6 2 3 2 7 5 2 2 5 3 2 2 2 3 2 1 1 3 2 2 2 3 4 2 2 1 3 5 5 5 3 2 2 1 2 3 6 3 6 3 5 10 8 5 4 5 5 4 5 4 4 4 4 4 5 7 5 2 0 1 3 5 4 4 9 9 4 3 5 3 3 4 5 8 11 13 14
9 7 6 6 8 11 13 15 13 10 8 5 2 2 6 7 2 1 4 4 3 2 2 2 4 1 2 2 4 2 3 3 2 4 2 2 3 4 3 4 5 5 3 2 2 2 4 7 7 3 1 8 9 5 4 7 2 2 3 3 2 4 5 4 4 6 5 3 2 2 3 5 5 8 11 11 9 4 3 5 9 10 9 10 13 14 14 13
10 8 6 6 9 12 14 16 15 13 10 4 1 5 7 5 2 3 4 2 1 0 2 3 2 1 4 2 3 4 1 1 1 1 2 2 3 4 4 3 6 8 6 4 3 2 3 6 4 2 1 6 8 3 2 3 2 1 3 3 3 3 5 3 5 2 1 4 5 4 6 6 4 10 13 11 9 7 8 10 13 13 14 16 15 13 13 13
9 7 5 8 12 13 14 16 17 16 9 3 5 7 4 3 4 4 3 1 1 2 2 2 1 1 3 2 2 3 2 1 0 1 2 2 3 4 5 4 4 10 10 5 2 4 3 5 4 4 4 6 4 3 1 1 4 5 3 5 2 2 2 1 2 1 2 7 5 6 11 10 6 7 9 10 11 9 11 13 15 15 16 15 12 12 12 12
5 4 4 10 16 14 12 16 19 14 5 2 8 10 4 3 4 3 3 3 1 2 3 2 3 1 1 2 3 2 1 2 0 1 2 2 3 3 3 3 3 7 6 1 2 3 1 4 5 3 5 2 3 1 2 2 2 4 3 3 2 2 2 1 2 1 5 9 5 5 11 9 5 7 9 10 8 9 10 12 15 15 14 11 10 10 10 10
4 2 2 9 16 15 14 18 17 9 2 3 8 9 4 3 3 2 3 2 2 2 2 4 4 1 2 2 3 2 2 3 1 1 2 2 4 2 2 3 1 1 1 3 1 2 2 2 4 1 1 0 3 0 4 2 2 2 1 3 1 3 3 2 3 2 4 8 6 5 6 4 5 7 5 2 5 7 8 10 11 10 9 7 6 6 7 8
5 2 2 3 8 16 18 17 12 5 3 5 6 6 2 1 1 1 3 2 1 1 2 3 4 3 3 3 3 3 2 4 3 3 2 2 4 3 2 2 1 1 2 3 1 2 2 3 4 1 2 1 1 3 6 7 3 1 1 3 2 2 1 2 2 2 3 6 6 6 6 5 5 2 4 6 6 6 8 9 8 7 8 7 7 7 8 9
2 1 3 1 5 17 19 12 5 4 4 5 6 7 4 3 2 2 2 3 2 1 0 2 4 3 2 3 4 3 2 3 4 4 4 4 4 4 3 3 2 2 2 3 0 2 1 3 4 3 2 5 7 7 6 7 6 5 5 5 6 5 2 4 6 5 5 5 5 7 9 6 1 3 7 8 6 7 8 8 8 7 7 7 7 8 8 8
1 2 2 1 11 22 15 4 3 3 3 4 4 4 3 2 3 3 1 1 1 1 1 2 3 3 3 4 5 3 3 4 4 4 4 4 6 7 4 1 3 2 1 1 3 4 2 2 4 7 6 8 10 8 5 6 4 3 3 4 4 4 4 6 8 6 5 6 6 8 10 5 4 7 7 7 8 9 8 8 8 6 5 6 7 8 8 8
2 2 1 4 18 20 8 4 4 3 3 3 1 2 2 1 2 2 1 1 0 2 2 2 3 4 5 5 5 5 4 4 5 7 5 4 6 6 3 4 2 2 1 3 3 2 1 2 3 7 5 5 7 7 4 2 3 1 3 3 4 4 5 7 7 4 4 6 7 8 9 4 3 6 7 8 8 8 8 7 7 6 5 6 7 7 8 8
1 1 2 5 15 12 4 5 5 4 5 4 3 6 4 2 4 4 3 3 2 2 2 2 3 3 4 3 3 4 5 4 5 7 5 4 5 2 6 6 2 0 1 2 3 3 2 2 3 5 4 4 4 6 5 2 1 2 2 2 3 4 6 6 4 1 1 5 9 8 6 3 3 5 7 8 7 8 8 7 6 6 4 3 4 4 5 6
1 1 2 1 7 6 3 3 2 4 6 5 6 7 6 4 4 5 5 4 4 3 2 2 2 2 1 1 1 3 4 4 5 4 1 2 3 1 5 6 4 2 1 1 0 0 1 2 3 5 6 6 6 6 3 2 1 1 2 4 4 3 5 5 3 3 4 6 8 6 4 4 5 2 4 7 6 6 7 6 5 4 3 2 2 2 3 4
1 1 1 2 3 2 2 0 1 4 4 3 4 5 8 8 5 2 5 4 4 5 4 4 3 2 2 3 4 5 5 5 5 3 3 3 3 1 2 3 4 2 2 1 3 3 0 2 4 7 9 9 9 8 4 3 4 5 6 7 7 6 6 5 4 5 8 8 7 8 9 11 10 6 4 7 7 6 5 4 3 2 2 2 2 2 3 3
1 1 2 1 2 2 2 2 2 3 2 3 4 4 6 8 5 2 4 3 3 3 4 4 4 5 5 5 5 6 6 6 6 5 6 6 4 3 2 2 3 0 2 2 1 2 1 3 6 10 13 11 11 12 9 8 9 10 11 12 12 10 8 8 10 10 9 8 8 9 11 12 9 4 1 3 4 4 4 4 3 2 2 2 3 4 5 6
0 1 1 1 0 2 3 2 3 4 3 3 2 2 5 6 5 3 2 1 1 2 2 2 3 7 8 6 4 4 4 5 5 5 6 5 3 4 4 0 1 2 1 1 1 2 2 4 6 11 14 12 13 14 11 9 10 10 11 13 13 11 11 12 14 12 9 8 9 9 12 14 9 2 2 2 2 2 2 2 3 2 2 3 4 5 6 7
1 0 2 2 1 1 0 1 1 2 7 6 2 4 7 7 8 6 0 2 3 1 3 5 6 7 7 7 6 5 6 7 7 7 5 3 3 3 3 3 1 2 4 2 2 1 3 3 4 7 10 9 10 11 8 8 9 9 10 10 10 12 14 14 13 12 11 12 12 13 17 16 6 2 4 3 3 1 2 3 3 3 3 3 3 5 5 6
1 1 1 2 2 1 2 2 2 0 4 5 5 6 6 7 11 7 1 2 5 4 3 5 7 5 3 6 7 6 6 4 6 7 2 2 4 3 2 3 1 1 2 1 2 2 2 3 1 1 5 7 8 9 8 6 7 9 9 9 11 13 14 13 13 12 13 14 14 15 16 11 1 4 2 3 3 2 2 3 4 4 3 2 3 4 5 6
2 1 1 1 0 1 2 0 1 1 2 4 6 6 6 7 8 3 0 1 3 2 2 1 4 4 2 3 4 4 1 3 1 3 2 1 3 2 2 1 2 1 1 0 1 2 2 3 3 2 5 9 10 11 9 5 6 10 11 13 16 16 14 14 13 12 13 15 15 13 10 5 4 3 1 3 4 3 3 4 4 3 2 2 3 5 6 6
2 1 1 2 1 1 2 1 1 2 3 3 3 3 3 3 1 0 1 0 3 3 3 3 3 2 1 3 2 2 2 2 1 3 2 2 3 3 3 3 1 1 1 1 1 1 2 2 2 2 5 6 7 7 3 2 6 10 11 13 16 16 15 14 14 14 11 8 9 10 5 2 4 3 1 2 4 3 3 4 4 4 3 3 5 6 6 6
Wind_Direction
10 13 12 12 11 9 7 4 4 360 357 353 353 351 345 343 338 337 336 336 338 336 336 334 334 337 339 345 347 345 337 327 316 290 257 274 272 238 240 259 259 211 208 201 185 167 135 117 136 129 127 91 13 345 6 2 97 78 96 135 220 197 205 187 190 200 192 257 265 277 167 176 297 297 283 327 309 281 279 255 250 270 253 239 248 259 263 265
4 6 3 1 3 5 1 359 359 355 353 349 348 346 341 338 332 330 325 324 326 324 326 324 324 326 330 339 340 341 332 321 307 273 247 262 292 251 241 238 245 208 197 195 192 174 141 150 150 110 83 65 347 356 355 318 103 110 123 157 227 205 212 194 187 195 211 243 255 273 242 209 265 282 9 288 285 307 295 275 229 253 261 254 254 252 251 247
359 358 357 355 357 0 355 352 351 349 348 344 340 338 335 330 326 323 319 317 317 316 316 315 318 318 324 331 337 342 329 319 304 249 204 125 29 327 260 226 220 195 193 196 198 187 154 160 154 109 62 71 331 11 20 352 171 175 131 201 240 217 227 227 209 208 224 245 291 288 282 234 247 242 60 264 288 287 262 268 249 245 257 257 253 242 237 233
356 354 355 353 352 355 352 346 344 343 341 338 332 329 327 323 320 316 314 313 312 313 311 312 314 313 320 326 337 338 331 332 289 197 164 123 4 3 305 222 202 190 193 188 179 185 148 136 134 85 80 121 326 6 226 234 215 177 150 208 232 198 231 238 219 223 233 230 253 282 322 295 264 185 194 171 303 286 255 245 238 248 254 252 257 235 219 218
352 353 357 352 349 350 347 341 337 337 334 331 327 326 326 322 318 313 310 308 307 308 306 309 309 309 316 321 333 335 352 8 275 197 181 301 331 333 318 215 199 190 188 179 154 150 137 131 110 58 79 144 334 36 242 223 141 172 207 227 223 169 236 244 214 225 218 156 230 281 304 286 292 186 197 167 236 266 264 239 220 242 247 247 259 225 202 209
348 352 356 349 349 349 344 337 335 335 333 333 329 329 328 322 318 313 309 306 306 306 303 303 304 305 310 317 321 324 50 348 256 230 271 290 303 303 289 206 196 187 185 172 146 137 125 109 100 98 87 53 198 195 248 237 121 239 246 254 247 204 232 250 197 203 173 144 219 244 284 303 16 296 211 178 224 247 263 261 233 252 245 246 262 202 196 212
347 350 350 347 348 346 342 338 339 343 342 342 337 334 330 324 319 312 310 308 307 309 306 305 304 303 306 313 289 346 103 239 264 272 283 283 281 280 236 201 191 189 184 164 145 136 115 107 135 152 110 6 211 210 237 253 80 254 260 260 258 226 229 245 204 191 186 207 237 251 313 295 273 287 241 201 234 244 262 273 265 268 262 253 257 233 227 223
346 347 347 346 346 343 341 340 346 352 350 348 342 338 332 325 317 312 310 307 308 311 309 306 307 308 309 296 200 0 108 251 273 280 279 275 267 252 209 192 188 190 184 177 166 150 136 140 168 154 133 237 194 189 203 131 86 220 237 246 257 247 242 259 254 240 244 238 244 289 289 270 247 254 276 256 253 252 261 275 271 271 275 256 249 250 247 237
346 344 345 345 346 343 341 344 353 355 351 349 344 339 331 324 317 312 309 306 308 309 308 307 308 310 302 291 114 341 257 260 275 270 265 261 251 227 202 194 190 189 179 184 179 161 161 172 191 186 186 204 171 187 188 181 239 214 224 252 272 278 276 288 269 236 249 241 183 211 260 267 254 205 266 260 258 266 265 271 274 276 276 260 250 252 249 246
344 342 342 343 348 345 343 349 356 355 351 348 344 338 330 323 317 312 309 307 306 306 305 303 307 309 286 251 111 261 263 264 255 246 251 244 240 219 208 203 193 190 177 175 177 169 174 189 184 166 158 150 167 193 167 173 210 190 207 272 263 275 285 267 266 244 248 254 178 197 253 267 310 115 266 260 239 261 270 274 278 270 268 264 259 255 251 249
342 341 339 343 349 348 349 353 357 356 349 346 342 336 329 322 316 312 309 305 303 303 301 298 305 307 270 165 183 249 265 260 244 242 245 242 240 224 215 210 199 196 182 171 189 189 184 178 152 118 153 176 166 188 210 192 162 129 128 299 277 294 297 226 253 261 235 261 192 191 252 277 347 162 254 263 246 258 274 281 283 270 263 268 270 270 261 248
344 344 345 347 350 350 353 356 359 357 351 346 340 334 328 320 314 309 304 300 299 297 294 295 300 293 272 186 223 248 260 258 250 247 248 246 233 217 214 212 209 210 199 185 204 204 194 168 145 137 211 164 138 217 235 195 100 36 67 312 290 328 309 240 242 257 183 221 185 165 262 285 251 225 250 265 275 283 277 276 281 275 268 272 277 279 272 259
350 352 352 350 350 352 355 357 360 359 354 348 340 334 326 319 314 307 301 294 291 290 286 287 284 262 263 266 246 255 262 258 254 252 250 244 227 215 210 206 208 215 217 209 206 204 201 189 161 170 197 149 214 214 128 71 66 290 76 303 297 334 306 261 219 68 141 201 172 151 269 273 251 246 257 270 275 282 281 269 274 280 278 276 274 279 277 269
354 356 354 350 350 351 353 357 359 358 355 348 342 335 326 321 315 308 304 295 287 280 273 270 247 192 152 259 269 277 269 261 254 250 247 238 218 192 186 197 200 203 214 210 195 191 198 196 161 136 200 156 239 284 31 13 9 295 307 162 310 293 284 292 174 115 301 224 153 158 253 262 267 266 265 283 20 271 275 273 274 282 284 280 271 272 275 272
354 354 352 349 347 348 350 353 356 357 355 349 345 336 327 322 317 315 313 301 288 261 235 194 177 152 78 276 273 279 269 264 257 250 246 234 211 183 180 185 189 188 191 190 184 176 176 173 139 127 268 284 330 354 343 347 4 0 286 270 278 211 265 304 268 189 239 272 125 164 235 259 265 271 272 300 27 43 266 275 275 275 278 281 278 269 271 274
347 347 346 346 345 345 346 348 351 353 353 350 346 338 328 323 321 324 319 308 289 197 166 156 168 151 357 278 271 276 263 255 256 253 237 222 210 190 161 151 150 149 148 143 139 139 140 130 100 154 212 296 174 110 37 351 324 338 228 245 247 230 270 313 288 234 215 213 175 211 236 268 262 268 276 293 312 291 279 278 276 273 273 276 279 275 272 276
340 338 339 342 341 340 343 345 346 347 349 349 346 337 328 322 328 336 344 68 103 124 124 142 157 141 269 255 267 275 260 231 237 242 213 204 198 181 151 123 112 116 107 98 115 115 92 77 3 313 43 8 142 96 39 314 276 279 230 238 244 239 259 299 291 295 235 168 205 225 234 253 262 274 285 290 289 285 282 280 276 272 273 273 276 280 276 273
330 332 336 338 337 337 340 343 343 343 345 346 344 335 325 315 329 5 83 105 103 99 89 110 127 106 263 244 248 256 112 143 173 145 162 164 168 171 150 118 119 111 87 62 91 90 11 25 59 351 337 14 112 101 191 244 248 257 255 262 281 256 246 265 269 295 310 254 230 230 243 252 265 275 280 280 276 266 266 273 277 275 275 275 277 278 275 272
319 328 335 335 335 336 338 341 343 344 342 346 346 335 326 327 326 69 93 97 105 107 124 201 167 140 249 254 267 274 94 115 126 122 137 141 152 153 124 107 111 103 92 68 298 124 81 53 68 113 244 219 189 179 211 235 247 253 244 239 268 279 254 247 254 259 281 282 274 265 264 266 271 274 276 277 276 262 256 266 281 281 277 276 271 267 270 272
310 318 325 330 333 335 340 342 342 345 345 349 350 340 349 10 351 9 354 310 216 219 216 226 216 236 280 284 6 137 148 134 115 130 144 145 147 134 96 76 79 69 115 154 190 156 112 126 163 217 230 223 213 213 228 261 338 261 252 254 260 277 274 262 267 266 247 279 274 262 273 282 279 277 277 276 276 271 267 270 274 276 278 271 264 264 272 278
300 309 315 322 330 334 341 342 341 346 347 352 359 4 106 66 352 318 314 287 258 253 254 245 226 244 264 261 180 150 105 31 46 106 149 154 146 143 121 67 100 107 239 144 138 55 100 163 216 229 231 223 209 217 250 282 285 267 259 276 280 261 269 270 273 278 274 254 265 258 275 287 287 281 271 268 272 275 276 272 263 267 269 265 268 281 286 287
292 299 304 311 325 334 338 342 341 343 346 358 18 54 142 225 248 264 282 296 281 257 244 251 241 248 254 253 243 199 64 293 315 82 164 149 122 183 176 93 139 196 198 122 113 65 118 213 238 238 215 75 59 91 208 247 254 265 266 293 292 265 276 278 270 294 346 234 273 284 286 283 275 272 268 265 262 266 272 262 251 253 261 272 291 303 296 297
289 292 298 305 321 328 333 340 338 341 350 8 34 66 15 292 244 231 153 273 291 271 236 241 230 235 250 260 235 181 199 239 257 260 181 149 100 196 149 134 164 164 155 186 185 161 186 244 246 235 156 162 255 278 263 274 254 240 248 282 275 266 286 276 272 326 345 261 274 297 294 277 266 271 274 269 253 253 265 258 251 250 262 283 294 291 290 299
294 300 305 311 317 319 329 334 331 343 358 13 38 26 1 317 245 208 1 256 281 282 251 223 203 211 232 250 188 172 202 215 192 252 184 154 149 160 161 163 148 162 215 202 191 197 238 250 229 145 146 179 224 253 246 256 259 236 218 230 256 262 254 249 277 350 330 295 311 318 306 280 270 304 297 285 280 259 256 255 265 295 266 269 282 282 284 290
285 291 299 305 305 307 322 327 322 350 352 354 25 3 14 7 231 160 5 329 286 294 284 219 187 211 192 124 152 170 174 202 208 248 183 160 155 140 180 167 137 215 217 173 175 233 260 250 139 110 114 149 187 240 233 211 241 290 229 221 241 256 257 262 303 4 352 325 359 5 337 283 195 72 260 296 319 272 258 270 309 326 285 261 274 282 292 294
264 269 286 292 295 306 318 320 315 342 342 327 345 352 11 29 177 176 37 15 290 281 295 230 179 177 159 74 19 151 126 282 284 0 122 165 173 134 149 161 113 218 194 151 159 224 255 292 113 144 148 134 175 245 228 164 156 287 248 220 232 249 263 274 303 355 356 275 311 41 14 274 269 185 238 261 266 266 277 331 326 301 300 293 280 294 314 312
267 262 268 274 281 298 306 285 300 328 332 316 340 346 352 7 348 225 0 7 298 242 119 316 349 116 160 344 344 128 155 288 357 34 45 52 319 83 141 214 168 183 180 142 292 241 195 54 64 121 137 141 191 249 215 154 144 240 248 170 181 223 239 236 230 225 230 277 313 3 147 276 286 215 234 252 243 270 296 308 302 299 305 301 297 323 322 310
274 262 254 258 264 274 274 256 284 310 294 298 327 335 346 1 185 118 50 302 294 101 99 298 101 81 70 20 37 95 207 310 70 338 339 31 324 49 88 229 182 186 191 145 229 257 145 135 151 140 123 166 205 222 183 154 160 240 216 122 127 162 184 163 141 186 268 343 312 285 151 266 280 237 252 290 249 278 296 286 297 318 319 321 331 334 328 328
274 261 254 254 255 261 265 253 245 256 268 286 311 323 345 344 236 67 93 235 290 81 75 331 130 15 2 47 26 51 351 4 95 275 335 45 312 64 176 220 154 172 214 151 223 253 164 184 183 149 147 207 217 209 174 163 181 214 141 95 67 70 77 85 117 143 30 331 260 213 173 245 284 255 158 52 231 245 264 272 295 313 315 329 339 330 338 355
268 260 255 247 242 242 237 241 244 247 259 267 290 319 339 322 43 87 217 231 351 343 255 118 185 329 72 92 0 337 331 334 17 353 11 48 352 34 134 191 107 130 264 342 263 249 252 190 163 158 186 196 166 137 177 168 154 122 100 58 33 31 32 41 34 77 58 291 252 199 181 199 286 286 179 188 213 203 238 301 308 316 322 330 339 334 345 355
275 261 246 235 234 221 194 235 250 240 244 248 278 332 346 357 83 186 231 238 31 290 111 104 321 30 96 128 202 288 53 305 351 62 78 114 24 33 42 201 88 70 0 332 292 283 299 179 219 241 216 141 116 101 327 76 105 103 84 56 25 344 5 23 355 38 116 262 265 205 176 177 242 263 217 246 264 225 225 286 299 309 315 317 335 350 354 355
293 277 253 239 237 222 207 230 241 203 214 210 220 30 60 0 249 208 245 353 349 257 157 203 255 127 130 115 211 213 156 205 204 134 151 154 164 183 202 199 166 351 317 256 276 322 269 218 245 297 246 152 132 121 341 22 90 112 105 93 41 321 351 354 307 45 206 253 277 188 155 193 244 254 257 272 282 281 265 233 245 261 277 304 344 2 2 8
290 297 270 237 228 223 225 230 213 187 180 171 150 48 89 234 244 183 194 270 259 261 89 107 63 124 133 118 244 220 172 197 187 171 163 140 182 241 248 215 170 183 262 213 275 324 287 284 244 226 275 183 153 167 233 237 163 155 151 150 146 177 229 277 263 265 269 267 288 101 144 277 276 272 249 249 265 281 284 227 226 235 275 330 358 17 18 21
276 293 285 239 222 223 227 225 223 211 168 142 86 63 161 234 244 100 193 241 272 346 17 69 61 27 73 190 245 205 187 234 159 147 158 112 132 263 263 240 182 150 164 191 250 199 247 295 214 182 239 179 175 195 192 145 155 174 163 155 152 160 204 239 229 249 271 274 294 345 167 221 253 265 234 232 248 266 273 267 283 29 26 11 19 28 28 24
265 275 284 256 223 220 219 219 222 204 162 131 93 174 220 233 253 325 238 239 294 334 357 41 85 48 312 292 290 269 222 256 98 112 170 172 186 214 222 223 192 158 140 194 255 170 203 265 249 218 153 163 183 218 140 110 124 209 128 117 178 181 190 237 245 234 250 274 265 223 230 224 238 289 290 279 285 311 340 359 40 45 37 41 35 26 23 20
260 264 262 236 226 219 208 213 215 193 163 135 183 219 232 231 188 215 219 200 271 214 351 344 87 127 285 293 319 326 329 259 72 94 225 217 221 224 222 233 192 174 174 188 223 217 219 264 273 0 355 194 192 197 136 140 186 172 123 177 226 168 156 236 279 254 202 258 242 217 252 268 288 292 290 297 318 356 27 39 52 45 37 42 35 23 19 14
252 254 237 217 228 221 204 210 204 184 162 149 222 225 228 216 194 199 201 162 187 99 56 324 212 180 261 279 304 322 354 301 211 164 240 257 249 213 212 258 207 188 202 205 225 239 241 268 252 181 220 240 189 155 308 293 146 132 171 218 214 88 109 156 282 338 259 251 241 218 245 265 284 279 286 311 334 12 39 46 47 39 38 38 29 22 18 10
226 236 241 232 232 220 204 206 191 168 137 183 232 239 224 207 213 192 173 156 144 71 77 249 251 231 264 277 283 274 204 223 220 177 214 248 241 176 167 256 224 197 220 30 9 282 284 279 270 198 206 251 60 96 287 315 113 137 204 236 124 160 243 179 172 232 250 253 257 221 232 246 249 255 280 307 343 31 43 47 46 40 39 34 23 19 14 10
175 167 267 237 224 213 201 193 176 152 131 204 228 241 225 217 231 188 182 151 114 124 183 231 239 255 278 231 222 253 215 189 195 231 219 237 244 175 137 238 232 212 274 85 177 273 35 267 279 28 171 228 46 325 217 241 341 46 329 312 54 177 206 200 185 176 232 251 258 233 224 220 224 237 260 342 47 54 46 51 53 48 47 39 26 17 9 13
165 155 261 241 207 200 189 175 163 158 206 214 230 238 231 257 250 223 227 204 154 180 210 220 212 223 257 228 212 254 236 197 199 212 216 235 261 265 223 208 129 37 41 74 210 288 29 246 245 351 354 263 217 216 205 214 227 126 193 258 244 215 225 251 234 185 219 249 254 254 249 231 236 241 105 98 81 67 68 69 60 46 44 35 24 19 11 12
154 125 243 335 163 178 171 161 172 189 203 231 244 245 259 283 270 256 227 188 194 290 206 192 211 222 251 264 254 242 209 216 211 207 232 244 252 263 242 189 158 160 81 62 132 228 231 239 239 259 276 249 246 236 211 213 208 181 190 209 215 220 229 261 250 215 212 234 236 258 265 249 243 67 98 111 102 85 81 80 69 46 34 28 22 19 14 13
156 148 247 40 164 169 162 167 205 172 200 228 231 234 244 284 272 250 223 122 160 233 233 212 220 220 232 253 254 235 223 238 219 211 244 239 221 232 243 191 126 121 99 267 229 219 167 140 234 249 241 244 260 261 220 192 175 176 196 197 207 197 183 229 249 240 239 245 239 253 261 254 85 91 108 109 103 95 87 87 84 65 37 31 22 14 14 12
178 193 342 142 168 168 161 217 210 181 224 228 256 254 229 240 267 244 179 50 214 200 201 215 218 220 228 233 232 226 229 232 222 222 234 238 232 246 310 357 36 51 341 275 262 284 64 108 247 260 262 270 280 283 271 157 127 211 238 187 185 196 211 234 247 251 252 249 249 254 254 253 80 102 114 107 107 101 90 89 88 78 51 34 20 13 10 4
95 283 352 162 179 181 187 211 206 217 228 232 253 249 241 235 246 253 249 229 207 189 189 222 234 231 237 244 238 233 232 239 248 240 223 224 247 304 18 17 24 69 276 249 247 279 273 224 250 269 282 295 288 288 301 338 107 235 242 215 216 232 254 270 277 281 236 222 229 244 252 236 151 136 114 102 108 103 93 90 85 81 71 46 27 15 4 357
35 292 328 230 206 215 225 205 194 214 225 239 246 246 253 253 236 232 236 228 202 184 205 253 225 195 240 301 310 265 235 227 251 264 232 240 260 347 26 25 50 97 271 310 353 317 271 241 250 264 262 262 270 270 263 256 257 267 276 280 280 250 242 269 292 276 262 236 227 243 272 260 235 203 60 51 58 73 81 87 91 95 92 76 49 5 350 355
119 184 320 326 298 276 255 43 143 202 218 231 241 249 245 248 264 217 196 224 229 196 206 236 194 161 227 240 250 267 252 223 227 253 277 270 265 305 356 41 68 124 199 89 64 80 84 241 231 248 255 257 269 274 271 278 279 277 278 276 274 257 239 249 257 249 263 269 257 256 264 266 267 282 357 23 28 32 41 49 55 68 58 36 8 348 350 353
120 168 178 162 331 284 258 290 233 207 193 191 216 258 238 235 263 258 192 221 239 185 207 236 202 193 212 218 230 246 246 233 223 231 252 253 249 292 304 111 86 34 177 150 64 106 175 243 232 245 256 259 268 276 282 287 279 274 278 276 271 265 248 243 246 250 266 278 264 257 264 271 273 266 45 42 35 27 21 10 354 350 0 356 341 341 350 354
88 162 192 130 79 216 216 248 247 231 229 211 200 269 256 242 246 243 227 295 310 161 210 273 234 213 215 222 228 237 249 251 239 237 252 253 253 301 318 3 75 355 66 78 335 123 177 252 250 255 263 264 268 274 274 272 270 266 267 268 269 267 252 246 251 257 260 259 264 276 278 278 278 236 144 106 80 42 355 319 294 293 313 333 336 341 350 352
40 170 319 13 62 179 178 36 23 246 239 239 238 243 249 253 249 244 272 358 310 255 216 247 249 230 221 226 227 235 244 250 258 255 243 231 232 248 276 263 266 27 58 45 311 185 185 245 244 252 269 269 264 270 270 268 271 269 263 261 265 264 260 259 263 264 257 256 266 275 273 274 275 150 160 147 137 209 280 285 279 271 277 307 324 327 334 336
39 40 343 32 66 57 21 18 42 38 235 231 236 243 242 248 254 256 228 222 256 260 218 237 266 281 249 224 222 233 243 254 274 271 245 219 245 219 217 233 208 31 35 49 294 281 249 264 286 290 276 269 262 266 267 267 274 275 275 273 266 264 265 267 269 269 266 265 264 261 265 269 212 135 191 173 162 218 250 262 277 264 243 258 289 300 318 328
62 50 86 68 15 134 109 55 97 131 233 218 217 234 239 240 247 256 148 211 240 241 151 157 306 332 340 249 244 241 245 66 357 291 356 342 280 301 307 254 117 63 340 138 275 310 280 283 342 359 272 264 264 268 273 291 296 281 274 268 263 262 263 262 262 263 264 268 268 265 266 257 160 152 241 192 184 233 249 253 280 278 238 244 271 289 314 322
93 12 87 99 1 176 139 109 132 177 218 219 216 229 228 241 280 97 212 96 73 94 100 74 359 357 1 299 316 138 137 104 194 271 299 280 277 295 290 290 271 190 176 161 256 278 236 263 316 281 264 265 264 269 300 354 293 273 259 256 256 257 260 260 259 258 257 262 269 267 261 216 174 167 205 215 212 241 255 256 279 283 257 247 257 275 299 305